Home   Weather   USA   Kodiak   Past weeks
Flag for USA

Past Weather in Kodiak, Alaska, USA — Yesterday and Last 2 Weeks

Currently: 51 °F. Light rain. Mostly cloudy. (Weather station: Kodiak Weather Reporting Station, USA). See more current weather

Past Weather in Kodiak — Graph

°F

Kodiak Temperature Yesterday

Maximum temperature yesterday: 51 °F (at 2:53 pm)
Minimum temperature yesterday: 49 °F (at 1:53 am)
Average temperature yesterday: 50 °F

High & Low Weather Summary for the Past Weeks

 TemperatureHumidityPressure
High64 °F (Jun 14, 3:53 pm)97% (Jun 17, 5:17 am)30.12 "Hg (Jun 17, 5:17 am)
Low39 °F (Jun 15, 5:53 am)47% (Jun 14, 2:53 pm)29.24 "Hg (Jun 23, 3:21 pm)
Average50 °F86%29.86 "Hg
* Reported Jun 9 1:44 pm — Jun 24 1:53 pm, Kodiak. Weather by CustomWeather, © 2021

Note: Actual official high and low records may vary slightly from our data, if they occured in-between our weather recording intervals... More about our weather records

Kodiak Weather History for the Previous 24 Hours

Scroll right to see more
 ConditionsComfort  
Time TempWeatherWind HumidityBarometerVisibility
1:53 pm
Thu, Jun 24
51 °FLight rain. Mostly cloudy.9 mph77%29.49 "Hg10 mi
1:23 pm51 °FLight rain. Mostly cloudy.14 mph71%29.49 "Hg10 mi
1:10 pm52 °FBroken clouds.17 mph69%29.48 "Hg10 mi
12:53 pm52 °FPartly sunny.17 mph69%29.47 "Hg10 mi
12:37 pm52 °FPartly sunny.16 mph72%29.46 "Hg10 mi
11:53 am52 °FPassing clouds.15 mph72%29.44 "Hg10 mi
10:53 am51 °FPartly sunny.18 mph80%29.45 "Hg10 mi
10:26 am51 °FBroken clouds.14 mph83%29.43 "Hg10 mi
9:53 am51 °FLight rain. More clouds than sun.8 mph86%29.43 "Hg8 mi
8:53 am50 °FMostly cloudy.9 mph89%29.41 "Hg10 mi
7:53 am49 °FLight rain. Fog.12 mph93%29.39 "Hg2 mi
7:29 am49 °FFog.13 mph93%29.39 "Hg3 mi
7:20 am49 °FFog.12 mph93%29.39 "Hg1 mi
6:53 am48 °FFog.12 mph93%29.38 "Hg1 mi
6:37 am48 °FFog.10 mph93%29.38 "Hg1 mi
6:09 am48 °FFog.7 mph93%29.38 "Hg1 mi
5:53 am48 °FFog.8 mph93%29.38 "Hg6 mi
5:03 am48 °FMostly cloudy.8 mph93%29.38 "Hg9 mi
4:53 am48 °FOvercast.10 mph93%29.38 "Hg8 mi
3:53 am49 °FLight rain. Overcast.8 mph90%29.36 "Hg10 mi
3:19 am49 °FOvercast.13 mph86%29.36 "Hg10 mi
3:09 am49 °FMostly cloudy.13 mph90%29.36 "Hg10 mi
2:53 am49 °FOvercast.6 mph90%29.36 "Hg10 mi
1:53 am49 °FLow clouds.7 mph90%29.34 "Hg10 mi
12:53 am50 °FLow clouds.6 mph86%29.33 "Hg10 mi
11:53 pm
Wed, Jun 23
49 °FPassing clouds.12 mph86%29.31 "Hg10 mi
9:53 pm50 °FLow clouds.10 mph94%29.28 "Hg8 mi
9:14 pm50 °FFog.6 mph94%29.28 "Hg4 mi
7:53 pm50 °FFog.8 mph93%29.26 "Hg1 mi
7:38 pm50 °FFog.9 mph93%29.26 "Hg1 mi
6:53 pm50 °FFog.12 mph93%29.26 "Hg1 mi
6:17 pm50 °FFog.10 mph96%29.26 "Hg1 mi
5:53 pm50 °FFog.12 mph93%29.25 "Hg1 mi
4:53 pm50 °FFog.13 mph93%29.25 "Hg1 mi
3:53 pm50 °FFog.14 mph96%29.24 "Hg3 mi
3:37 pm51 °FFog.16 mph89%29.24 "Hg2 mi
3:21 pm51 °FFog.16 mph92%29.24 "Hg4 mi
Weather by CustomWeather, © 2021

See weather overview